When you browse on this site, cookies collect data to enhance your experience and personalize the content and advertising you see.
Visit our Privacy Policy to learn more. By continuing to use the site, you agree to this use of cookies and data.
  • Em Portugal
  • Lista de países
  • Para 7 dias
  • Temperatura da água
  • Mapas de satélite
  • Mapa do tempo
  • Widgets de tempo
  • user-avatar
    Iniciar Sessão

    Previsão horária em Suryanino

    Hoje, 21 Fevereiro, Quinta-feira

    Tempo Temperatura Precipitação Vento Pressão Humidade
    00:00 -2°C° 0.4 mm 6 m/s 732 mmHg 91%
    01:00 -2°C° 0.4 mm 6 m/s 732 mmHg 91%
    02:00 -1°C° 0 mm 4 m/s 731 mmHg 92%
    03:00 -2°C° 0.2 mm 5 m/s 731 mmHg 89%
    04:00 -5°C° 0.2 mm 5 m/s 731 mmHg 87%
    05:00 -6°C° 0.2 mm 6 m/s 731 mmHg 85%
    06:00 -6°C° 0.1 mm 6 m/s 731 mmHg 85%
    07:00 -6°C° 0.1 mm 6 m/s 732 mmHg 84%
    08:00 -8°C° 0 mm 6 m/s 732 mmHg 84%
    09:00 -6°C° 0.1 mm 6 m/s 733 mmHg 83%
    10:00 -6°C° 0.1 mm 6 m/s 733 mmHg 82%
    11:00 -7°C° 0.1 mm 7 m/s 733 mmHg 81%
    12:00 -7°C° 0.1 mm 7 m/s 734 mmHg 80%
    13:00 -8°C° 0.1 mm 7 m/s 734 mmHg 79%
    14:00 -8°C° 0.1 mm 7 m/s 734 mmHg 78%
    15:00 -8°C° 0.1 mm 6 m/s 734 mmHg 78%
    16:00 -9°C° 0.1 mm 6 m/s 735 mmHg 79%
    17:00 -10°C° 0.1 mm 6 m/s 735 mmHg 79%
    18:00 -10°C° 0 mm 6 m/s 735 mmHg 80%
    19:00 -10°C° 0 mm 6 m/s 736 mmHg 80%
    20:00 -12°C° 0 mm 7 m/s 736 mmHg 81%
    21:00 -11°C° 0 mm 6 m/s 737 mmHg 81%
    22:00 -11°C° 0 mm 6 m/s 737 mmHg 81%
    23:00 -12°C° 0 mm 6 m/s 737 mmHg 82%

    Amanhã, 22 Fevereiro, Sexta-feira

    Tempo Temperatura Precipitação Vento Pressão Humidade
    00:00 -12°C° 0 mm 6 m/s 738 mmHg 82%
    01:00 -12°C° 0 mm 6 m/s 738 mmHg 82%
    02:00 -14°C° 0 mm 6 m/s 739 mmHg 82%
    03:00 -14°C° 0 mm 6 m/s 739 mmHg 83%
    04:00 -14°C° 0 mm 6 m/s 739 mmHg 83%
    05:00 -15°C° 0 mm 6 m/s 739 mmHg 83%
    06:00 -15°C° 0 mm 6 m/s 740 mmHg 83%
    07:00 -15°C° 0 mm 6 m/s 740 mmHg 84%
    08:00 -15°C° 0 mm 6 m/s 741 mmHg 84%
    09:00 -14°C° 0.1 mm 6 m/s 741 mmHg 83%
    10:00 -14°C° 0.1 mm 6 m/s 742 mmHg 82%
    11:00 -14°C° 0.1 mm 6 m/s 742 mmHg 81%
    12:00 -14°C° 0.1 mm 6 m/s 743 mmHg 81%
    13:00 -12°C° 0.1 mm 6 m/s 743 mmHg 81%
    14:00 -12°C° 0.1 mm 6 m/s 744 mmHg 81%
    15:00 -12°C° 0.1 mm 6 m/s 744 mmHg 82%
    16:00 -14°C° 0.1 mm 6 m/s 745 mmHg 83%
    17:00 -13°C° 0.1 mm 5 m/s 746 mmHg 83%
    18:00 -13°C° 0 mm 5 m/s 746 mmHg 84%
    19:00 -13°C° 0 mm 5 m/s 747 mmHg 84%
    20:00 -14°C° 0 mm 5 m/s 748 mmHg 85%
    21:00 -14°C° 0 mm 5 m/s 749 mmHg 85%
    22:00 -14°C° 0 mm 5 m/s 749 mmHg 85%
    23:00 -15°C° 0 mm 5 m/s 750 mmHg 85%

    Depois de amanhã, 23 Fevereiro, Sábado

    Tempo Temperatura Precipitação Vento Pressão Humidade
    00:00 -15°C° 0 mm 5 m/s 750 mmHg 85%
    01:00 -17°C° 0 mm 5 m/s 751 mmHg 86%
    02:00 -16°C° 0 mm 4 m/s 751 mmHg 87%
    03:00 -16°C° 0 mm 4 m/s 752 mmHg 87%
    04:00 -16°C° 0 mm 4 m/s 752 mmHg 88%
    05:00 -16°C° 0 mm 4 m/s 753 mmHg 89%
    06:00 -16°C° 0 mm 4 m/s 754 mmHg 89%
    07:00 -16°C° 0 mm 4 m/s 754 mmHg 89%
    08:00 -15°C° 0 mm 3 m/s 755 mmHg 90%
    09:00 -15°C° 0 mm 3 m/s 755 mmHg 88%
    10:00 -14°C° 0 mm 3 m/s 755 mmHg 86%
    11:00 -14°C° 0 mm 4 m/s 755 mmHg 85%
    12:00 -12°C° 0 mm 3 m/s 755 mmHg 84%
    13:00 -12°C° 0 mm 3 m/s 755 mmHg 83%
    14:00 -10°C° 0 mm 3 m/s 755 mmHg 83%
    15:00 -12°C° 0 mm 3 m/s 755 mmHg 84%
    16:00 -12°C° 0 mm 2 m/s 755 mmHg 86%
    17:00 -13°C° 0 mm 2 m/s 755 mmHg 88%
    18:00 -13°C° 0 mm 2 m/s 755 mmHg 88%
    19:00 -13°C° 0 mm 2 m/s 755 mmHg 88%
    20:00 -13°C° 0 mm 2 m/s 755 mmHg 88%
    21:00 -13°C° 0 mm 2 m/s 755 mmHg 87%
    22:00 -12°C° 0 mm 2 m/s 755 mmHg 87%
    23:00 -12°C° 0 mm 2 m/s 754 mmHg 87%

    24 Fevereiro, Domingo

    Tempo Temperatura Precipitação Vento Pressão Humidade
    00:00 -13°C° 0 mm 3 m/s 754 mmHg 88%
    01:00 -13°C° 0 mm 3 m/s 754 mmHg 89%
    02:00 -13°C° 0 mm 3 m/s 753 mmHg 90%
    03:00 -12°C° 0 mm 3 m/s 753 mmHg 91%
    04:00 -12°C° 0 mm 3 m/s 752 mmHg 91%
    05:00 -11°C° 0 mm 4 m/s 752 mmHg 92%
    06:00 -11°C° 0.1 mm 4 m/s 752 mmHg 92%
    07:00 -10°C° 0.1 mm 4 m/s 752 mmHg 92%
    08:00 -9°C° 0.1 mm 4 m/s 752 mmHg 92%
    09:00 -8°C° 0.2 mm 4 m/s 752 mmHg 92%
    10:00 -8°C° 0.2 mm 4 m/s 751 mmHg 92%
    11:00 -7°C° 0.2 mm 4 m/s 751 mmHg 91%
    12:00 -5°C° 0.1 mm 4 m/s 751 mmHg 91%
    13:00 -4°C° 0.1 mm 4 m/s 751 mmHg 91%
    14:00 -3°C° 0.1 mm 4 m/s 750 mmHg 92%
    15:00 -3°C° 0 mm 4 m/s 750 mmHg 92%
    16:00 -3°C° 0 mm 4 m/s 750 mmHg 93%
    17:00 -3°C° 0 mm 4 m/s 750 mmHg 93%
    18:00 -3°C° 0 mm 4 m/s 750 mmHg 94%
    19:00 -3°C° 0 mm 4 m/s 750 mmHg 94%
    20:00 -3°C° 0 mm 4 m/s 750 mmHg 95%
    21:00 -3°C° 0 mm 4 m/s 750 mmHg 95%
    22:00 -3°C° 0 mm 4 m/s 750 mmHg 95%
    23:00 -1°C° 0 mm 3 m/s 750 mmHg 95%

    25 Fevereiro, Segunda-feira

    Tempo Temperatura Precipitação Vento Pressão Humidade
    00:00 -3°C° 0 mm 4 m/s 749 mmHg 95%
    01:00 -3°C° 0 mm 4 m/s 749 mmHg 95%
    02:00 -3°C° 0 mm 4 m/s 748 mmHg 96%
    03:00 -2°C° 0.1 mm 4 m/s 748 mmHg 95%
    04:00 -2°C° 0.1 mm 5 m/s 747 mmHg 94%
    05:00 -2°C° 0.1 mm 5 m/s 747 mmHg 94%
    06:00 -2°C° 0 mm 5 m/s 746 mmHg 94%
    07:00 -1°C° 0 mm 5 m/s 746 mmHg 93%
    08:00 -1°C° 0 mm 5 m/s 745 mmHg 93%
    09:00 -1°C° 0 mm 5 m/s 745 mmHg 94%
    10:00 -1°C° 0 mm 5 m/s 745 mmHg 96%
    11:00 -1°C° 0 mm 5 m/s 744 mmHg 97%
    12:00 -1°C° 0 mm 5 m/s 744 mmHg 97%
    13:00 -1°C° 0 mm 5 m/s 743 mmHg 96%
    14:00 -1°C° 0 mm 5 m/s 743 mmHg 96%
    15:00 -1°C° 0 mm 5 m/s 742 mmHg 93%
    16:00 -1°C° 0 mm 5 m/s 742 mmHg 89%
    17:00 -1°C° 0 mm 5 m/s 742 mmHg 86%
    18:00 -1°C° 0 mm 5 m/s 742 mmHg 86%
    19:00 -2°C° 0 mm 5 m/s 742 mmHg 87%
    20:00 -2°C° 0 mm 5 m/s 741 mmHg 87%
    21:00 -2°C° 0.1 mm 5 m/s 741 mmHg 86%
    22:00 -2°C° 0.1 mm 5 m/s 741 mmHg 86%
    23:00 -2°C° 0.1 mm 5 m/s 740 mmHg 85%

    26 Fevereiro, Terça-feira

    Tempo Temperatura Precipitação Vento Pressão Humidade
    00:00 -4°C° 0.1 mm 6 m/s 740 mmHg 85%
    01:00 -4°C° 0.1 mm 6 m/s 740 mmHg 85%
    02:00 -4°C° 0.1 mm 6 m/s 740 mmHg 86%
    03:00 -4°C° 0 mm 6 m/s 739 mmHg 86%
    04:00 -5°C° 0 mm 5 m/s 739 mmHg 86%
    05:00 -5°C° 0 mm 5 m/s 738 mmHg 86%
    06:00 -5°C° 0 mm 5 m/s 738 mmHg 86%
    07:00 -5°C° 0 mm 5 m/s 738 mmHg 86%
    08:00 -5°C° 0 mm 6 m/s 738 mmHg 86%
    09:00 -5°C° 0 mm 6 m/s 737 mmHg 85%
    10:00 -4°C° 0 mm 5 m/s 736 mmHg 83%
    11:00 -4°C° 0 mm 5 m/s 736 mmHg 81%
    12:00 -4°C° 0.1 mm 5 m/s 735 mmHg 81%
    13:00 -4°C° 0.1 mm 5 m/s 734 mmHg 82%
    14:00 -2°C° 0.1 mm 4 m/s 734 mmHg 82%
    15:00 -3°C° 0.1 mm 4 m/s 733 mmHg 84%
    16:00 -2°C° 0.1 mm 3 m/s 733 mmHg 86%
    17:00 -4°C° 0.1 mm 3 m/s 733 mmHg 87%
    18:00 -4°C° 0 mm 3 m/s 733 mmHg 89%
    19:00 -4°C° 0 mm 3 m/s 733 mmHg 90%
    20:00 -5°C° 0 mm 3 m/s 733 mmHg 91%
    21:00 -5°C° 0 mm 3 m/s 733 mmHg 90%
    22:00 -5°C° 0 mm 3 m/s 734 mmHg 89%
    23:00 -7°C° 0 mm 4 m/s 734 mmHg 88%
    Mostrar mais